This is the latest recevied weather packets stored in our database for station/object KB1JDX. If no packets are shown the sender has not sent any weather packets the latest 10 day(s).
| Time | Temp. | Humidity | Pressure | Rain* | Wind** | Luminosity | Snow |
|---|---|---|---|---|---|---|---|
| 1787836627 | 20.56° C | 100% | 1018.1 hPa | 0 mm | 0 m/s | - | - |
| 1787835494 | 19.44° C | 100% | 1018.1 hPa | 0 mm | 0 m/s | - | - |
| 1787834294 | 18.33° C | 100% | 1018.1 hPa | 0 mm | 0 m/s | - | - |
| 1787833094 | 17.78° C | 100% | 1018.1 hPa | 0 mm | 0 m/s | - | - |
| 1787833027 | 17.78° C | 100% | 1018.1 hPa | 0 mm | 0 m/s | - | - |
| 1787829494 | 16.11° C | 100% | 1018 hPa | 0 mm | 0 m/s | - | - |
| 1787829427 | 16.11° C | 100% | 1018 hPa | 0 mm | 0 m/s | - | - |
| 1787828294 | 15.56° C | 100% | 1018 hPa | 0 mm | 0 m/s | - | - |
| 1787825826 | 15.56° C | 100% | 1017.9 hPa | 0 mm | 0 m/s | - | - |
| 1787824694 | 15.56° C | 100% | 1017.7 hPa | 0 mm | 0 m/s | - | - |
| 1787822226 | 16.11° C | 100% | 1017.7 hPa | 0 mm | 0 m/s | - | - |
| 1787819896 | 16.11° C | 100% | 1017.8 hPa | 0 mm | 0 m/s | - | - |
| 1787818626 | 16.11° C | 100% | 1017.7 hPa | 0 mm | 0 m/s | - | - |
| 1787816294 | 16.11° C | 100% | 1017.9 hPa | 0 mm | 0 m/s | - | - |
| 1787815026 | 16.67° C | 100% | 1017.9 hPa | 0 mm | 0 m/s | - | - |
| 1787812695 | 16.67° C | 100% | 1017.8 hPa | 0 mm | 0 m/s | - | - |
| 1787811494 | 16.67° C | 100% | 1017.9 hPa | 0 mm | 0 m/s | - | - |
| 1787811426 | 16.67° C | 100% | 1017.9 hPa | 0 mm | 0 m/s | - | - |
| 1787809095 | 17.22° C | 100% | 1018.1 hPa | 0 mm | 0 m/s | - | - |
| 1787807826 | 17.22° C | 100% | 1018.2 hPa | 0 mm | 0 m/s | - | - |
| 1787804226 | 17.78° C | 100% | 1018.2 hPa | 0 mm | 0 m/s | - | - |
| 1787803093 | 17.78° C | 100% | 1018.2 hPa | 0 mm | 0 m/s | - | - |
| 1787800626 | 18.33° C | 100% | 1018.2 hPa | 0 mm | 0 m/s | - | - |
| 1787799495 | 18.33° C | 100% | 1018.1 hPa | 0 mm | 0 m/s | - | - |
| 1787798294 | 18.89° C | 100% | 1018.1 hPa | 0 mm | 0 m/s | - | - |
* Rain latest hour (hover to see other rain measurements)
** Current wind speed in m/s (hover to see current wind gust speed)